Location: Trebic
(49.2170°N, 15.8830°E)
Time: 05:23:22
(UTC+02:00)

Transit 2A Rocket - Visible Passes

Search period start: 17 July 2019 00:00
Search period end: 27 July 2019 00:00
Orbit: 588 x 915 km, 66.7° (Epoch: 16 July)

Date Brightness Start Highest point End Pass type
(mag) Time Alt. Az. Time Alt. Az. Time Alt. Az.
17 Jul 7.7 03:27:05 10° SE 03:29:34 13° ESE 03:32:00 10° ENE visible
18 Jul 6.3 04:23:14 10° S 04:28:52 43° ESE 04:34:13 10° NE visible
19 Jul 6.8 03:41:34 10° SSE 03:46:33 28° ESE 03:51:20 10° NE visible
20 Jul 7.3 03:00:30 10° SE 03:04:20 18° ESE 03:08:02 10° ENE visible
21 Jul 7.7 02:21:17 10° ESE 02:22:13 10° ESE 02:23:08 10° E visible
21 Jul 5.7 03:57:58 10° SSW 04:03:49 57° ESE 04:09:20 10° NE visible
22 Jul 6.3 03:16:44 13° S 03:21:25 37° ESE 03:26:36 10° NE visible
23 Jul 6.9 02:35:32 14° SSE 02:39:09 24° ESE 02:43:36 10° ENE visible
23 Jul 5.3 04:15:27 10° SW 04:21:21 75° NW 04:26:56 10° NNE visible
24 Jul 7.3 01:54:18 11° SE 01:56:57 15° ESE 02:00:03 10° ENE visible
24 Jul 5.3 03:34:13 18° SSW 03:38:48 75° ESE 03:44:23 10° NE visible
25 Jul 5.8 02:52:56 23° S 02:56:21 49° ESE 03:01:45 10° NE visible
25 Jul 6.0 04:33:36 10° WSW 04:39:07 40° NW 04:44:18 10° NNE visible
26 Jul 6.4 02:11:37 24° SSE 02:13:59 32° ESE 02:18:55 10° NE visible
26 Jul 5.6 03:51:31 15° SW 03:56:26 58° NW 04:01:52 10° NNE visible
